EW3700 Weather Reports


time (UTC)temp
C
wind
direction
speed
KPH
gust
KPH
rain 1hr
cm
rain 24hr
cm
rain mn
cm
humidity
%
barometer
mb
20240518203020 26 293 6.4 24.1 0.00 0.69 0.05 47 1005.3
20240518202020 26 270 4.8 11.3 0.00 0.69 0.05 49 1005.2
20240518201017 26 293 8.0 22.5 0.00 0.69 0.05 47 1005.0
20240518200017 26 270 8.0 30.6 0.00 0.69 0.05 50 1004.9
20240518195021 26 270 8.0 24.1 0.00 0.69 0.05 49 1004.8
20240518194017 27 270 8.0 19.3 0.00 0.69 0.05 49 1004.8
20240518193017 26 270 8.0 14.5 0.00 0.69 0.05 49 1004.6
20240518192017 26 270 6.4 17.7 0.00 0.69 0.05 50 1004.4
20240518191016 26 315 8.0 17.7 0.00 0.69 0.05 50 1004.4
20240518190017 26 270 8.0 16.1 0.00 0.69 0.05 52 1004.3
20240518185017 26 293 8.0 17.7 0.00 0.69 0.05 51 1004.2
20240518184017 26 270 6.4 20.9 0.00 0.69 0.05 54 1003.9
20240518183017 25 270 8.0 22.5 0.00 0.69 0.05 55 1003.8
20240518182017 26 293 4.8 14.5 0.00 0.69 0.05 56 1003.6
20240518181017 26 315 4.8 12.9 0.00 0.69 0.05 54 1003.5
20240518180017 26 270 4.8 12.9 0.00 0.69 0.05 54 1003.5
20240518175017 26 270 3.2 14.5 0.00 0.69 0.05 55 1003.4
20240518174017 26 270 4.8 17.7 0.00 0.69 0.05 55 1003.4
20240518173019 26 270 4.8 17.7 0.00 0.69 0.05 55 1003.4
20240518172021 26 270 6.4 14.5 0.00 0.69 0.05 55 1003.2
20240518171017 26 248 4.8 16.1 0.00 0.69 0.05 56 1003.1
20240518170021 26 270 3.2 14.5 0.00 0.69 0.05 58 1003.0
20240518165019 25 293 4.8 16.1 0.00 0.69 0.05 57 1003.0
20240518164020 25 270 1.6 11.3 0.00 0.69 0.05 58 1002.9
20240518163017 25 270 6.4 14.5 0.00 0.69 0.05 58 1003.0
20240518162017 25 180 4.8 12.9 0.00 0.69 0.05 57 1002.8
20240518161017 25 203 3.2 11.3 0.00 0.69 0.05 58 1002.7
20240518160016 25 270 3.2 12.9 0.00 0.69 0.05 59 1002.5
20240518155017 25 203 3.2 14.5 0.00 0.69 0.05 58 1002.4
20240518154016 25 180 3.2 12.9 0.00 0.69 0.05 59 1002.2
20240518153016 25 203 4.8 14.5 0.00 0.69 0.05 60 1002.0
20240518152017 24 270 3.2 9.7 0.00 0.69 0.05 63 1002.1
20240518151017 24 293 3.2 16.1 0.00 0.69 0.05 62 1002.1
20240518150017 23 203 4.8 14.5 0.00 0.69 0.05 63 1001.9
20240518145017 23 203 4.8 11.3 0.00 0.69 0.05 64 1001.7
20240518144036 23 180 3.2 12.9 0.00 0.69 0.05 67 1001.9
20240518143017 22 203 3.2 11.3 0.00 0.69 0.05 69 1001.9
20240518142017 22 225 3.2 14.5 0.00 0.69 0.05 68 1001.9
20240518141056 22 180 4.8 9.7 0.00 0.69 0.05 67 1001.9
20240518140016 22 180 3.2 19.3 0.00 0.69 0.05 68 1001.9
20240518135017 22 180 4.8 14.5 0.00 0.69 0.05 68 1001.8
20240518134016 21 203 4.8 14.5 0.00 0.69 0.05 69 1001.6
20240518133016 21 180 4.8 16.1 0.00 0.69 0.05 70 1001.8
20240518132017 20 180 1.6 4.8 0.00 0.69 0.05 73 1001.7
20240518131016 20 203 3.2 14.5 0.00 0.69 0.05 71 1001.8
20240518130016 20 180 4.8 12.9 0.00 0.69 0.05 72 1001.8
20240518125036 20 203 3.2 9.7 0.00 0.69 0.05 74 1001.7
20240518124018 19 180 3.2 11.3 0.00 0.69 0.05 75 1001.5
20240518123018 19 158 1.6 8.0 0.00 0.69 0.05 77 1001.4
20240518122018 18 180 3.2 12.9 0.00 0.69 0.05 77 1001.5
20240518121018 18 180 3.2 11.3 0.00 0.69 0.05 77 1001.4
20240518120018 18 180 4.8 14.5 0.00 0.69 0.05 77 1001.2
20240518115018 18 135 1.6 6.4 0.00 0.69 0.05 78 1001.1
20240518114018 18 135 3.2 9.7 0.00 0.69 0.05 78 1000.8
20240518113018 18 135 3.2 8.0 0.00 0.69 0.05 78 1000.7
20240518112036 18 180 3.2 12.9 0.00 0.69 0.05 78 1000.8
20240518111018 18 180 1.6 8.0 0.00 0.69 0.05 77 1001.0
20240518110018 18 180 3.2 8.0 0.00 0.69 0.05 77 1000.9
20240518105018 18 180 4.8 14.5 0.00 0.69 0.05 78 1001.0
20240518104038 17 113 3.2 8.0 0.00 0.69 0.05 79 1001.1
20240518103018 17 113 1.6 12.9 0.00 0.69 0.05 79 1001.0
20240518102018 17 158 1.6 8.0 0.00 0.69 0.05 79 1000.8
20240518101018 17 158 3.2 11.3 0.00 0.69 0.05 79 1000.8
20240518100018 18 135 4.8 12.9 0.00 0.69 0.05 78 1001.0
20240518095018 18 158 3.2 11.3 0.00 0.69 0.05 78 1001.1
20240518094021 18 180 3.2 14.5 0.00 0.69 0.05 77 1001.0
20240518093038 18 135 4.8 16.1 0.00 0.69 0.05 77 1000.9
20240518092018 18 158 1.6 9.7 0.00 0.69 0.05 78 1001.1
20240518091018 18 158 3.2 8.0 0.00 0.69 0.05 78 1001.1
20240518090017 18 180 4.8 11.3 0.00 0.69 0.05 78 1001.1
20240518085018 18 158 4.8 12.9 0.00 0.69 0.05 78 1000.9
20240518084018 18 158 3.2 9.7 0.00 0.69 0.05 79 1000.9
20240518083038 18 180 1.6 6.4 0.00 0.69 0.05 79 1000.9
20240518082018 18 180 3.2 8.0 0.00 0.69 0.05 77 1001.2
20240518081018 18 180 4.8 16.1 0.03 0.69 0.05 77 1001.3
20240518080018 18 180 3.2 11.3 0.05 0.69 0.05 79 1001.2
20240518075037 18 135 3.2 11.3 0.05 0.69 0.05 82 1001.2
20240518074058 17 135 1.6 6.4 0.05 0.69 0.05 83 1001.4
20240518073018 17 180 6.4 17.7 0.05 0.69 0.05 82 1001.6
20240518072018 18 180 4.8 16.1 0.05 0.69 0.05 82 1001.4
20240518071021 18 203 6.4 16.1 0.03 0.66 0.03 80 1001.2
20240518070022 18 293 3.2 22.5 0.00 0.64 0.00 79 1001.1
20240518065020 18 135 3.2 16.1 0.00 0.64 0.00 78 1000.7
20240518064021 18 158 4.8 16.1 0.00 0.64 0.00 79 1001.0
20240518063018 18 180 6.4 14.5 0.00 0.64 0.00 80 1001.2
20240518062017 18 135 1.6 8.0 0.00 0.64 0.00 81 1001.1
20240518061020 18 158 3.2 8.0 0.00 0.64 0.00 82 1001.3
20240518060017 18 158 3.2 9.7 0.00 0.64 0.00 83 1001.3
20240518055017 18 158 3.2 11.3 0.00 0.64 0.00 82 1001.2
20240518054017 17 180 3.2 11.3 0.00 0.64 0.00 83 1001.3
20240518053017 17 180 1.6 11.3 0.00 0.64 0.00 84 1001.3
20240518052017 17 180 1.6 9.7 0.00 0.64 0.00 85 1001.4
20240518051018 17 180 3.2 11.3 0.00 0.64 0.00 85 1001.4
20240518050017 17 113 4.8 12.9 0.00 0.64 0.64 86 1001.4
20240518045017 17 113 3.2 12.9 0.00 0.64 0.64 86 1001.5
20240518044017 17 158 3.2 12.9 0.00 0.64 0.64 86 1001.7
20240518043017 17 135 3.2 9.7 0.00 0.64 0.64 86 1001.7
20240518042019 17 113 3.2 6.4 0.05 0.64 0.64 86 1001.6
20240518041037 17 158 3.2 14.5 0.05 0.64 0.64 87 1001.6
20240518040019 17 158 3.2 8.0 0.05 0.64 0.64 87 1001.8
20240518035020 17 158 1.6 6.4 0.05 0.64 0.64 87 1002.0
20240518034016 17 158 1.6 6.4 0.05 0.64 0.64 88 1002.0
20240518033017 17 158 1.6 6.4 0.05 0.64 0.64 88 1001.8
20240518032016 17 158 1.6 4.8 0.00 0.58 0.58 88 1001.6
20240518031036 17 158 1.6 8.0 0.00 0.58 0.58 89 1001.4
20240518030016 17 158 1.6 6.4 0.00 0.58 0.58 89 1001.5
20240518025017 17 158 1.6 8.0 0.00 0.58 0.58 90 1001.5
20240518024016 17 158 1.6 8.0 0.03 0.58 0.58 91 1001.6
20240518023016 17 180 1.6 14.5 0.10 0.58 0.58 91 1001.8
20240518022016 17 203 1.6 6.4 0.23 0.58 0.58 92 1001.9
20240518021017 17 203 1.6 6.4 0.30 0.58 0.58 91 1002.5
20240518020016 17 203 3.2 9.7 0.36 0.58 0.58 91 1002.4
20240518015016 17 270 1.6 4.8 0.38 0.58 0.58 91 1002.6
20240518014016 17 270 1.6 4.8 0.36 0.56 0.56 92 1003.1
20240518013016 18 270 1.6 4.8 0.30 0.48 0.48 91 1003.9
20240518012016 18 0.0 3.2 0.30 0.36 0.36 91 1003.9
20240518011016 18 0.0 1.6 0.25 0.28 0.28 91 1003.7
20240518010038 18 0.0 3.2 0.20 0.23 0.23 89 1003.6
20240518005018 18 0.0 0.0 0.20 0.20 0.20 88 1003.3
20240518004018 18 0.0 4.8 0.20 0.20 0.20 85 1002.9
20240518003016 18 270 4.8 11.3 0.18 0.18 0.18 81 1002.9
20240518002018 20 315 8.0 19.3 0.05 0.05 0.05 76 1002.5
20240518001018 21 315 4.8 14.5 0.03 0.03 0.03 68 1002.3
20240518000018 23 248 3.2 14.5 0.03 0.03 0.03 58 1001.7
20240517235018 26 180 1.6 6.4 0.00 0.00 0.00 45 1001.5
20240517234018 27 203 3.2 11.3 0.00 0.00 0.00 40 1000.8
20240517233018 27 180 3.2 9.7 0.00 0.00 0.00 37 1000.5
20240517232038 27 180 4.8 12.9 0.00 0.00 0.00 36 1000.3
20240517231018 27 180 6.4 19.3 0.00 0.00 0.00 36 1000.2
20240517230018 27 180 6.4 16.1 0.00 0.00 0.00 35 1000.5
20240517225018 28 180 6.4 16.1 0.00 0.00 0.00 35 1000.5
20240517224118 28 180 8.0 19.3 0.00 0.00 0.00 34 1000.3
20240517223018 29 180 6.4 16.1 0.00 0.00 0.00 34 1000.4
20240517222038 29 180 8.0 25.7 0.00 0.00 0.00 33 1000.6
20240517221018 30 225 6.4 17.7 0.00 0.00 0.00 32 1000.7
20240517220018 30 180 6.4 17.7 0.00 0.00 0.00 33 1000.7
20240517215018 30 180 8.0 17.7 0.00 0.00 0.00 33 1000.9
20240517214017 29 203 4.8 17.7 0.00 0.00 0.00 35 1000.7
20240517213018 28 158 4.8 17.7 0.00 0.00 0.00 37 1000.8
20240517212017 29 180 3.2 12.9 0.00 0.00 0.00 36 1001.1
20240517211038 30 158 4.8 14.5 0.00 0.00 0.00 38 1001.3
20240517210018 29 180 4.8 12.9 0.00 0.00 0.00 38 1001.2
20240517205018 29 180 6.4 14.5 0.00 0.00 0.00 37 1001.1
20240517204018 29 158 3.2 12.9 0.00 0.00 0.00 38 1001.2